Location: Saint-Restitut
(44.3351°N, 4.7915°E)
Time: 08:32:25
(UTC+00:00)

BREEZE-M DEB (TANK) - Pass Details

Date: 03 February 2023
Orbit: 427 x 13836 km, 45.9° (Epoch: 26 March)

Event Time Altitude Azimuth Distance (km) Brightness Sun altitude
Rises 17:11:31 0° 266° (W) 2,387 7.5 -4.0°
Reaches altitude 10° 17:13:11 10° 268° (W) 1,551 6.2 -4.3°
Maximum altitude 17:16:04 74° 354° (N) 584 2.4 -4.8°
Drops below altitude 10° 17:21:41 10° 81° (E) 2,964 5.4 -5.7°
Enters shadow 17:23:08 - 82° (E) 3,652 5.8 -6.0°
